Regional Weather Roundup
Issued by NWS

Home | Current Version | Previous Version | Text Only | Print | Product List | Glossary On
Versions: 1 2 3 4 5 6 7 8 9 10 11 12 13 14 15 16 17 18 19 20 21 22 23 24 25 26 27 28 29 30 31 32 33 34 35 36 37 38 39 40 41 42 43 44 45 46 47 48 49 50
000
ASUS43 KMPX 211101
RWRMN
WEATHER ROUNDUP FOR MINNESOTA
NATIONAL WEATHER SERVICE TWIN CITIES/CHANHASSEN MN
500 AM CST SAT JAN 21 2017


NOTE: "FAIR" INDICATES FEW OR NO CLOUDS BELOW 12,000 FEET WITH NO
SIGNIFICANT WEATHER AND/OR OBSTRUCTIONS TO VISIBILITY. N/A MEANS
CURRENT SKY AND/OR WEATHER CONDITIONS ARE NOT AVAILABLE.

MNZ060>063-068>070-211200-
   Twin Cities Metro

CITY           SKY/WX    TMP DP  RH WIND       PRES   REMARKS
TWIN CITIES    CLOUDY    35  34  96 E7        29.45F FOG     WCI  29
ST PAUL        CLOUDY    35  35 100 E6        29.47F FOG     WCI  30
CRYSTAL        FOG       35  33  92 E6        29.44F VSB 1   WCI  30
BLAINE         FOG       36  36 100 E5        29.45F VSB 3/4
LAKEVILLE      SNOW      32  32 100 E6        29.43F VSB 1/4 WCI  26
EDEN PRAIRIE   FOG       35  34  96 E7        29.42F VSB 3/4 WCI  29
SOUTH ST PAUL  CLOUDY    36  35  99 E6        29.45F FOG
LAKE ELMO      CLOUDY    34  34 100 E5        29.47F FOG     WCI  30
$$
MNZ001>005-007-008-013>017-022>024-027-028-211200-
   Northwest Minnesota

CITY           SKY/WX    TMP DP  RH WIND       PRES   REMARKS
BEMIDJI        CLOUDY    33  33 100 E6        29.44F FOG     WCI  27
HALLOCK        CLOUDY    37  36  93 SE10      29.41F
ROSEAU         DRIZZLE   36  30  80 SE6       29.45S
WARROAD        DRIZZLE   36  30  80 SE7       29.46S
THIEF RVR FALL CLOUDY    34  33  96 SE15      29.42F WCI  24
CROOKSTON      CLOUDY    36  34  93 SE8       29.42S
FOSSTON        CLOUDY    34  32  93 E8        29.43S WCI  27
DETROIT LAKES  CLOUDY    34  34 100 SE14      29.42S FOG     WCI  24
MOORHEAD       CLOUDY    34  34 100 SE7       29.40S WCI  28
PARK RAPIDS    FOG       34  31  88 E7        29.42F VSB 1/2 WCI  28
MAHNOMEN       CLOUDY    34  33  96 SE9       29.41S WCI  27
$$
MNZ006-009>011-018-025>026-211200-
   North Central Minnesota

CITY           SKY/WX    TMP DP  RH WIND       PRES   REMARKS
BAUDETTE       CLOUDY    34  33  96 SE7       29.47F WCI  28
FLAG ISLAND    CLOUDY    34  32  93 E6        29.47S FOG     WCI  29
INTL FALLS     CLOUDY    33  32  96 E6        29.50S WCI  28
WASKISH        CLOUDY    34  34 100 E7        29.47F WCI  28
LONGVILLE      FOG       34  34 100 E3        29.46S VSB 1
GRAND RAPIDS   FOG       33  33 100 SE6       29.50S VSB 3/4 WCI  28
CRANE LAKE     CLOUDY    32  32 100 CALM      29.54S
ORR            CLOUDY    34  30  86 CALM      29.48S
COOK           CLOUDY    34  32  93 CALM      29.51S
WALKER         FOG       32  32  99 E3        29.45F VSB 3/4
$$
MNZ012-019>021-037-211200-
   Northeast Minnesota

CITY           SKY/WX    TMP DP  RH WIND       PRES   REMARKS
DULUTH         DRZL/FOG  34  34 100 E6        29.50S VSB 1/8 WCI  29
ELY            CLOUDY    34  34 100 CALM      29.51S
HIBBING        FOG       32  32 100 SE7       29.49S VSB 1/2 WCI  26
EVELETH        FOG       34  33  98 CALM      29.51S VSB 1
DULUTH HARBOR  CLOUDY    34  34 100 NE7       29.53F WCI  28
TWO HARBORS    HAZE      37  32  81 CALM      29.51R VSB 1/4
SILVER BAY     FOG       36  36 100 E3        29.51S VSB 1/4
GRAND MARAIS     N/A     36  35  96 NE9       29.56F
G MARAIS ARPRT MIX PCPN  30  28  93 E7        29.53F VSB 1/2 WCI  23
$$
MNZ029>031-032-039>041-046>048-054>057-064-211200-
   West Central Minnesota

CITY           SKY/WX    TMP DP  RH WIND       PRES   REMARKS
FERGUS FALLS   CLOUDY    36  36 100 SE13      29.44S
WHEATON        CLOUDY    39  39 100 E12       29.40F FOG
MORRIS         CLOUDY    34  34 100 E10       29.38F FOG     WCI  26
ALEXANDRIA     CLOUDY    33  33 100 E8        29.41F FOG     WCI  26
ELBOW LAKE     CLOUDY    33  33 100 SE12      29.40F FOG     WCI  24
WADENA         FOG       32  32 100 E5        29.43S VSB 1/4 WCI  27
GLENWOOD       CLOUDY    34  34 100 E8        29.41F FOG     WCI  27
APPLETON       CLOUDY    36  34  93 E10       29.38F FOG
BENSON         CLOUDY    36  32  87 SE9       29.40F
ORTONVILLE     DRIZZLE   34  32  93 CALM      29.38S
MADISON        CLOUDY    36  36 100 SE8       29.37F FOG
WILLMAR        CLOUDY    36  36 100 E10       29.41F FOG
$$
MNZ033>034-036-042>043-049>051-058-059-211200-
   Central Minnesota

CITY           SKY/WX    TMP DP  RH WIND       PRES   REMARKS
ST CLOUD       FOG       34  34 100 E6        29.45S VSB 1/4 WCI  29
SAUK CENTRE    SNOW      32  32 100 E6        29.42F VSB 1/2 WCI  27
PAYNESVILLE    SNOW      33  33 100 E6        29.43F VSB 1/2 WCI  28
AITKIN         FOG       36  32  87 E3        29.46F VSB 1/2
PINE RIVER     FOG       34  34 100 E7        29.50S VSB 1/2 WCI  28
BRAINERD       FOG       33  33 100 E3        29.46F VSB 3/4
STAPLES        FOG       34  34 100 CALM      29.44S VSB 1
LONG PRAIRIE   SNOW      32  32 100 NE3       29.43F VSB 1/4
LITTLE FALLS   FOG       32  32 100 E6        29.45F VSB 1   WCI  26
LITCHFIELD     FOG       36  36 100 E5        29.43S VSB 1/4
BUFFALO        FOG       34  33  96 NE5       29.45F VSB 1/2 WCI  30
MAPLE LAKE     FOG       35  35 100 MISG      29.44F VSB 1/4
HUTCHINSON     FOG       34  35 100 E8        29.43S VSB 1/2 WCI  28
$$
MNZ037-044-045-052-053-211200-
   East Central Minnesota

CITY           SKY/WX    TMP DP  RH WIND       PRES   REMARKS
PRINCETON      FOG       36  34  93 NE5       29.46F VSB 1/4
MORA           FOG       34  32  93 E7        29.50S VSB 3/4 WCI  28
CAMBRIDGE      FOG       36  36 100 CALM      29.45F VSB 1/2
RUSH CITY      CLOUDY    34  34 100 E5        29.48F FOG     WCI  30
MOOSE LAKE     CLOUDY    34  32  93 CALM      29.49R FOG
HINCKLEY       FOG       34  34 100 E7        29.49F VSB 3/4 WCI  28
CLOQUET        SNOW      34  34 100 E5        29.49F VSB 1/4 WCI  30
MCGREGOR       CLOUDY    34  34 100 E7        29.49S VSB 3/4 WCI  28
$$
MNZ071>073-080-081-089-090-097-098-211200-
   Southwest Minnesota

CITY           SKY/WX    TMP DP  RH WIND       PRES   REMARKS
MONTEVIDEO     FOG       34  34 100 SE9       29.40F VSB 1   WCI  26
GRANITE FALLS  FOG       35  34  99 E9        29.40S VSB 3/4 WCI  27
CANBY          FOG       34  34 100 CALM      29.37F VSB 1/2
MARSHALL       LGT SNOW  33  33 100 SE8       29.38F FOG     WCI  26
REDWOOD FALLS  FOG       34  33  96 E7        29.39F VSB 1/4 WCI  28
OLIVIA         FOG       34  34 100 E8        29.40S VSB 3/4 WCI  27
PIPESTONE      DRZL/FOG  36  36 100 SE8       29.34S VSB 3/4
WINDOM         HVY RAIN  34  34 100 E5        29.37F VSB 1/2 WCI  30
WORTHINGTON    FOG       33  33 100 SE3       29.36F VSB 1/4
JACKSON        FOG       32  32 100 E5        29.37F VSB 1/2 WCI  27
TRACY          DRIZZLE   34  34 100 SE6       29.37F WCI  29
SLAYTON        FOG       33  33 100 SE7       29.36F VSB 3/4 WCI  26
$$
MNZ065>067-074>077-082>085-091>093-211200-
   South Central Minnesota

CITY           SKY/WX    TMP DP  RH WIND       PRES   REMARKS
MANKATO        LGT RAIN  35  34  96 E9        29.40F FOG     WCI  28
NEW ULM        DRZL/FOG  34  34 100 E8        29.40F VSB 1/2 WCI  27
ST JAMES       RAIN      34  34 100 E6        29.40F VSB 1   WCI  29
FAIRMONT       LGT RAIN  34  34 100 E6        29.38F FOG     WCI  29
GLENCOE        SNOW      35  35 100 E7        29.42F VSB 1/2 WCI  29
OWATONNA       CLOUDY    36  34  93 E8        29.40F
WASECA         LGT RAIN  34  34 100 NE8       29.41F WCI  27
ALBERT LEA     RAIN      36  36 100 E5        29.38F
$$
MNZ078>079-086>088-094>096-211200-
   Southeast Minnesota

CITY           SKY/WX    TMP DP  RH WIND       PRES   REMARKS
ROCHESTER      RAIN      34  34 100 E10       29.41F FOG     WCI  26
RED WING       DRIZZLE   36  34  93 E5        29.45F
STANTON        DRIZZLE   36  34  94 E6        29.42F
DODGE CENTER   MIX PCPN  34  34 100 CALM      29.40F VSB 1
WINONA         CLOUDY    36  36 100 CALM      29.46F FOG
AUSTIN         LGT SNOW  34  34 100 E7        29.39S WCI  28
PRESTON        LGT RAIN  34  33  96 E6        29.42S VSB 1/4 WCI  29
$$
ABBREVIATIONS USED IN REMARKS
   TC - TEMPERATURES IN CELSIUS
  WCI - WIND CHILL INDEX
   HX - HEAT INDEX
  VSB - VISIBILITY
$$



USA.gov is the U.S. government's official web portal to all federal, state and local government web resources and services.